Погода в Калачинске

Погода в Калачинске : погода сейчас, прогноз погоды и архив. Всё, что Вы хотите узнать о погоде в Калачинске!

Хотите узнать прогноз погоды в Калачинске? Тогда Вам сюда: Погода в Калачинске

Поиск расширенной информации на нашем сайте:

Другие новости

Новости СМИ2

Главная страница сайта

Новости сайта

03.07.2017

Напоминаем, что на нашем специализированном сайте Метеоцентр.Азия вы можете получить высокодетализированные автоматические прогнозы погоды по пунктам России, СНГ и мира в авиационном формате (включающие направление и скорость ветра, видимость, явления погоды, количество и форму облачности, нижнюю и верхнюю границу облачности).


Погода в Калачинске - сегодня

Время (UTC), дата Ветер
(°,м/с) 
Видим.   Явления Облачность Т
(°С)
Тd
(°С)
f(%) Тe
(°С)
Pmin
(гПа)
dP
(гПа)
Po
(мм)
O2
(г/м3)
Тmin Tmax R s Состояние
почвы
21 15.09.17 240 (ЮЗ) 10 км    10/0 верхняя 
[Ci fib]
+12.8 +6.1 64 +12  1010.3  0.4  748  287           
00 16.09.17 260 (З) 10 км    10/0 верхняя 
[Ci fib]
+12.8 +7.7 71 +12  1011.8  1.5  749  287           
03 16.09.17 270 (З) 20000 м    10/0 верхняя 
[Ci fib]
+15.1 +8.9 66 +15  1013.3  1.5  750  285  +11.4        сухая 
06 16.09.17 280 (З) 7{11}  20000 м    10/0 верхняя 
[Ci fib]
+19.6 +8.2 48 +20  1014.2  1.1  751  281           
12 16.09.17 290 (З) 5{10}  20000 м    10/0 верхняя 
[Ci fib]
+20.4 +7.5 43 +20  1015.4  0.7  752  281           
15 16.09.17 230 (ЮЗ) 10 км    10/0 верхняя 
[Ci fib]
+14.5 +8.1 65 +15  1016.8  1.2  753  287    +21.5       
18 16.09.17 200 (Ю) 10 км    10/0 верхняя 
[Ci fib]
+7.8 +7.5 98 +9  1017  -0.2  753  294           
21 16.09.17 180 (Ю) 10 км    6/0 средняя 
[Ac As]
+11 +9.6 91 +12  1016.2  -0.6  752  290           
00 17.09.17 190 (Ю) 10 км    10/0 средняя, верхняя 
[Ac As|Ci fib]
+10.9 +7.7 81 +11  1015.4  -0.8  752  290           
03 17.09.17 180 (Ю) 20000 м    10/0 верхняя 
[Ci fib]
+14.8 +8.5 66 +15  1013.1  -2.1  750  285  +7        сухая 
06 17.09.17 200 (Ю) 20000 м    10/0 верхняя 
[Ci fib]
+23.7 +8.8 39 +24  1010.4  -2.3  748  276           
15 17.09.17 300 (СЗ) 3{10}  10 км    10/6 600 м кучево-дожд., средняя 
[Cb cap|Ac und]
+18.2 +10.1 59 +20  1009.5  0.6  747  281    +27.1       
18 17.09.17 240 (ЮЗ) 10 км    10/0 средняя 
[Ac und]
+14.8 +9.3 70 +15  1010.3  0.7  748  284           
21 17.09.17 250 (З) 10 км    ясно 
+10.7 +7.9 83 +10  1010.4  0.1  748  289           
00 18.09.17 230 (ЮЗ) 10 км    ясно 
+8.4 +7.4 93 +8  1011.1  0.5  748  291           
03 18.09.17 250 (З) 20000 м    ясно 
+11.4 +8.7 83 +11  1011.3  0.4  749  288  +7.2        сухая 
06 18.09.17 250 (З) 20000 м    10/4 1000 м средняя, верхняя 
[Cu hum|Ac As|Ci fib]
+17.3 +6.1 48 +17  1010.3  -0.8  748  282           
09 18.09.17 260 (З) 20000 м    10/8 600 м кучево-дожд., средняя 
[Cb cap|Ac und]
+16.5 +5.2 47 +16  1010.1  -0.2  748  283           
12 18.09.17 270 (З) 6{10}  20000 м    10/6 1000 м средняя, верхняя 
[Cu hum|Ac trans|Ci fib]
+16.3 +5.6 49 +16  1009.4  -0.7  747  283           
15 18.09.17 270 (З) 10 км  в посл. час ливневой дождь  10/10 600 м кучево-дожд. 
[Cb cap]
+12.2 +6.6 69 +12  1010.5  0.9  748  287    +17.7  0.0     
18 18.09.17 250 (З) 10 км  {ливн. осадки}  8/0 верхняя 
[Ci fib]
+8.2 +7.6 96 +8  1010.7  748  291           
21 18.09.17 280 (З) 10 км  в посл. час ливневой дождь  10/10 600 м кучево-дожд. 
[Cb cap]
+9.6 +9.3 98 +9  1011.3  0.7  749  290           
00 19.09.17 280 (З) 10 км  {ливн. осадки}  10/8 1000 м средняя 
[Cu hum|Ac und]
+8.7 +8.3 97 +8  1013.1  1.8  750  291           
03 19.09.17 280 (З) 20000 м    10/9 600 м кучево-дожд., средняя, верхняя 
[Cb cap|Ac As|Ci fib]
+9 +7.9 93 +7  1015  1.8  751  292  +8.2    0.0    влажная 
06 19.09.17 290 (З) 7-10{10}  10 км  {ливн. осадки}  10/8 200 м кучево-дожд., средняя 
[Cb cap|Ac As]
+10.9 +5.3 68 +9  1016.6  1.6  752  291           
Время (UTC), дата Ветер
(°,м/с) 
Видим.   Явления Облачность Т
(°С)
Тd
(°С)
f(%) Тe
(°С)
Pmin
(гПа)
dP
(гПа)
Po
(мм)
O2
(г/м3)
Тmin Tmax R s Состояние
почвы

Для получения пояснительной информации подведите курсор к названию столбца.

ПОГОДА в Калачинске - архив

Всё, что Вы хотите узнать о погоде в Калачинске - удобно и подробно!

Выберите нужную дату (начиная с 1 января 2015* года) и нажмите кнопку "Найти".
Будут отображены архивные сводки погоды по пункту Калачинск, начиная с указанной даты.


Отображать данные в формате CSV (для использования в таблицах Excel)


Внимание! Наш архив погоды предназначен исключительно для личного некоммерческого использования в познавательных целях. Если Вам необходимы официальные справки о состоянии погоды (для производственных, юридических, коммерческих и т.п. целей), обращайтесь в органы Росгидромета.

*Примечание: данная дата относится к архиву по метеостанциям СССР (Россия, СНГ, Балтия).
Архив по метеостанциям Зарубежной Европы и Азии (кроме Китая) хранится 10 дней, по другим регионам земного шара (Китай, Африка, Америка, Австралия, Океания) - 1 день.

Калачинск - район местоположения метеостанции


Название, широта, долгота, высота метеостанции:
Калачинск 55°ш. 74.6°д. 110 м над ур. моря [Российская Федерация]

Дополнительная информация

В oтличие oт бoльшинства пoгoдных сайтoв мы публикуем пoдрoбную метеoинфoрмацию в детальнoм прoфессиoнальнoм фoрмате.

Характеристики температуры и влажнoсти вoздуха измеряются на высoте 2 м в тени вдали oт зданий и деревьев.
Скoрoсть ветра измеряется на высoте 10 м (на урoвне рoста челoвека скoрoсть ветра ниже в 1.5-2 раза). Если метеoстанция нахoдится в гoрoде или в лесу, тo скoрoсть ветра занижена на 2-4 м/с пo сравнению с oткрытым местoм. Скoрoсть ветра над акватoриями крупных рек и oзёр, а также на вершинах хoлмoв на 2-5 м/с выше, чем в oбычных услoвиях.
Атмoсфернoе давление в разных тoчках местнoсти мoжет значительнo oтличаться oт давления на метеoстанции, в зависимoсти oт услoвий рельефа (при пoдъёме на 10 м давление пoнижается примернo на 1 мм рт.ст.).